Date,TemperatureHighF,TemperatureAvgF,TemperatureLowF,DewpointHighF,DewpointAvgF,DewpointLowF,HumidityHigh,HumidityAvg,HumidityLow,PressureMaxIn,PressureMinIn,WindSpeedMaxMPH,WindSpeedAvgMPH,GustSpeedMaxMPH,PrecipitationSumIn
2013-9-1,70.0,70.0,70.0,-99.9,-99.9,-99.9,0,0,100,0.00,40.00,7,7,0,0.00
2013-9-7,66.0,66.0,66.0,-99.9,-99.9,-99.9,0,0,100,30.00,30.00,9,9,0,0.00
2013-9-8,64.0,61.4,60.0,-99.9,-99.9,-99.9,0,0,100,30.15,30.06,15,10,0,0.00
2013-9-9,62.0,44.3,62.0,-99.9,-99.9,-99.9,0,0,100,29.94,29.80,21,17,0,0.00
2013-9-10,74.0,66.9,55.0,-99.9,-99.9,-99.9,0,0,100,29.88,29.88,23,18,0,0.00
2013-9-11,57.0,28.5,57.0,-99.9,-99.9,-99.9,0,0,100,29.91,8.97,5,4,0,0.00
2013-9-12,64.0,63.8,63.0,-99.9,-99.9,-99.9,0,0,100,30.06,9.98,18,16,0,0.00
2013-9-13,62.0,42.9,54.0,-99.9,-99.9,-99.9,0,0,100,30.18,16.97,32,24,0,0.00
2013-9-14,66.0,63.5,61.0,-99.9,-99.9,-99.9,0,0,100,30.15,30.09,21,16,0,0.00
2013-9-15,68.0,59.0,50.0,-99.9,-99.9,-99.9,0,0,100,30.18,30.03,21,15,0,0.00
2013-9-16,52.0,52.0,52.0,-99.9,-99.9,-99.9,0,0,100,30.03,30.03,7,7,0,0.00
2013-9-17,59.0,56.8,53.0,-99.9,-99.9,-99.9,0,0,100,30.24,30.12,20,13,0,0.00
2013-9-18,58.0,58.0,58.0,-99.9,-99.9,-99.9,0,0,100,29.91,29.91,6,6,0,0.00
2013-9-19,63.0,61.0,59.0,-99.9,-99.9,-99.9,0,0,100,29.91,29.88,22,18,0,0.00
2013-9-20,66.0,66.0,66.0,-99.9,-99.9,-99.9,0,0,100,29.88,29.88,29,28,0,0.00
2013-9-21,59.0,59.0,59.0,-99.9,-99.9,-99.9,0,0,100,29.85,29.85,23,23,0,0.00
2013-9-22,53.0,39.8,53.0,50.0,-62.4,-99.9,0,0,100,30.09,29.88,29,24,0,0.00
2013-9-23,64.0,64.0,64.0,-99.9,-99.9,-99.9,0,0,100,30.00,30.00,16,16,0,0.00
2013-9-24,58.0,56.5,55.0,-99.9,-99.9,-99.9,0,0,100,30.03,30.00,15,12,0,0.00
2013-9-25,67.0,62.0,57.0,-99.9,-99.9,-99.9,0,0,100,30.03,30.00,6,4,0,0.00
2013-9-27,67.0,67.0,67.0,-99.9,-99.9,-99.9,0,0,100,30.12,30.12,15,12,0,0.00
2013-9-28,67.0,65.7,62.0,-99.9,-99.9,-99.9,0,0,100,30.12,30.03,23,21,0,0.00
2013-9-29,58.0,58.0,58.0,-99.9,-99.9,-99.9,0,0,100,30.03,30.03,7,7,0,0.00
2013-9-30,59.0,59.0,59.0,-99.9,-99.9,-99.9,0,0,100,0.00,40.00,10,10,0,0.00